Location: Paddlesworth
(51.1000°N, 1.1333°E)
Time: 18:27:45
(UTC+00:00)

JB-3 - Pass Details

Date: 11 May 2021
Orbit: 525 x 589 km, 97.3° (Epoch: 20 June)

Event Time Altitude Azimuth Distance (km) Brightness Sun altitude
Rises 21:13:01 0° 15° (NNE) 2,724 8.4 -12.5°
Reaches altitude 10° 21:15:11 10° 18° (NNE) 1,816 7.4 -12.8°
Maximum altitude 21:19:05 65° 101° (E) 595 4.3 -13.1°
Enters shadow 21:22:04 16° 181° (S) 1,438 6.0 -13.4°
